Погода в Бабинцах

Украина / Киевская область     50°38′27″N   30°01′36″E
темп.,
°C
ветер,
м/с
пор.,
м/с
влажн.,
%
обл.,
%
осадки,
мм/ч
давл.,
гПа
погр.,
м
18 мая, вт
вт1800:00+13ююв009516 0.1 100311
03:00+13ююв239783 0.2 100369
06:00+12ю2296100 0.0 100249
09:00+16юв3479100 0.0 1002450
12:00+20вюв5563100 0.1 10011012
15:00+20вюв4662100 0.4 10001039
18:00+18вюв367897 3.7 998508
21:00+15юв2289100 6.6 99834
19 мая, ср
ср1900:00+13юв2395100 0.4 99846
03:00+12ююв36955 2.0 998152
06:00+11ююв2598100 0.0 1000127
09:00+15ююв348022 0.0 1001610
12:00+18ююв346523 1.2 10011209
15:00+16з5584100 6.8 1003565
18:00+12сз51092100 1.2 1005699
21:00+11сз4119394 1.2 1006526
20 мая, чт
чт2000:00+10зсз41195100 0.0 1007525
03:00+9зсз51294100 0.0 1006549
06:00+9зсз5139299 0.0 1007591
09:00+12зсз6117560 0.0 1008954
12:00+16сз675599 0.0 10081638
15:00+17сз4653100 0.0 10091307
18:00+17ссз235689 0.0 10091228
21:00+12ссв1175100 0.0 101110
21 мая, пт
пт2100:00+11ссв2279100 0.0 101219
03:00+10ссв2384100 0.0 101257
06:00+10св2686100 0.0 1013170
09:00+14св3570100 0.0 1014545
12:00+16всв4463100 0.6 10141000
15:00+15с127093 1.7 1015389
18:00+13ссв488599 0.6 1015453
21:00+11с239088 0.6 101650
22 мая, сб
сб2200:00+9ссз33945 0.0 101658
03:00+8ссз34955 0.0 101666
06:00+8ссз24950 0.0 101782
09:00+14ссв23720 0.0 1016423
12:00+19всв335120 0.0 10151497
15:00+20вюв3351100 0.0 10151567
18:00+20вюв345597 0.0 10141069
21:00+14юв22766 0.0 101512